Home   Weather   Chicago   Past weeks
Flag for USA

Past Weather in Chicago, Illinois, USA — December 2017

Now
11 °F

Passing clouds.


Feels Like: -6 °F
Forecast: 17 / 10 °F
Wind: 16 mph from Northwest

Location: Chicago Midway Airport

Current Time: Jan 20, 2019 at 7:32:19 pm

Latest Report: Jan 20, 2019 at 6:53 pm


Visibility: 10 mi

Pressure: 30.47 "Hg

Humidity: 53%

Dew Point: -3 °F

Location of ChicagoLocation

December 2017 Weather in Chicago — Graph

°F

High & Low Weather Summary for December 2017

 TemperatureHumidityPressure
High65 °F (Dec 4, 1:53 pm)97% (Dec 11, 6:53 pm)30.84 "Hg (Dec 11, 6:53 pm)
Low-2 °F (Dec 27, 5:53 am)31% (Dec 19, 3:53 pm)29.28 "Hg (Dec 13, 1:28 pm)
Average28 °F66%30.12 "Hg
* Reported Dec 1 12:53 am — Dec 31 11:53 pm, Chicago. Weather by CustomWeather, © 2019

Note: Actual official high and low records may vary slightly from our data, if they occured in-between our weather recording intervals... More about our weather records

Advertising

Chicago Weather History for December 1, 2017

Scroll right to see more
 ConditionsComfort  
Time TempWeatherWind HumidityBarometerVisibility
12:53 am
Fri, Dec 1
39 °FClear.3 mph62%30.22 "Hg10 mi
1:53 am38 °FClear.No wind65%30.22 "Hg10 mi
2:53 am35 °FClear.5 mph72%30.22 "Hg10 mi
3:53 am34 °FPassing clouds.5 mph76%30.24 "Hg10 mi
4:53 am33 °FClear.8 mph78%30.25 "Hg10 mi
5:53 am33 °FClear.No wind78%30.26 "Hg10 mi
6:53 am32 °FPassing clouds.3 mph79%30.27 "Hg10 mi
7:53 am33 °FPassing clouds.3 mph78%30.28 "Hg10 mi
8:53 am38 °FPassing clouds.3 mph70%30.29 "Hg10 mi
9:53 am42 °FPassing clouds.6 mph60%30.29 "Hg10 mi
10:53 am46 °FPassing clouds.7 mph51%30.28 "Hg10 mi
11:53 am50 °FPassing clouds.7 mph43%30.25 "Hg10 mi
12:53 pm51 °FScattered clouds.6 mph39%30.23 "Hg10 mi
1:53 pm52 °FScattered clouds.6 mph38%30.22 "Hg10 mi
2:53 pm52 °FPartly sunny.6 mph38%30.20 "Hg10 mi
3:53 pm51 °FPartly sunny.7 mph38%30.20 "Hg10 mi
4:53 pm50 °FPassing clouds.6 mph39%30.20 "Hg10 mi
5:53 pm48 °FPassing clouds.6 mph44%30.21 "Hg10 mi
6:53 pm47 °FPassing clouds.5 mph46%30.21 "Hg10 mi
7:53 pm45 °FPassing clouds.6 mph48%30.20 "Hg10 mi
8:53 pm43 °FPassing clouds.6 mph51%30.19 "Hg10 mi
9:53 pm42 °FPassing clouds.3 mph53%30.18 "Hg10 mi
10:53 pm41 °FPassing clouds.5 mph58%30.19 "Hg10 mi
11:53 pm40 °FPassing clouds.5 mph60%30.17 "Hg10 mi
Weather by CustomWeather, © 2019

See weather overview

LIVE TOTAL LUNAR ECLIPSE – Watch the eclipse as it happens